This is the latest recevied weather packets stored in our database for station/object PA0HHN. If no packets are shown the sender has not sent any weather packets the latest 10 day(s).
| Time | Temp. | Humidity | Pressure | Rain* | Wind** | Luminosity | Snow |
|---|---|---|---|---|---|---|---|
| 1777560302 | 18.89° C | 31% | 1022.1 hPa | - | - | - | - |
| 1777559402 | 20° C | 30% | 1022.5 hPa | - | - | - | - |
| 1777558501 | 20° C | 30% | 1022.5 hPa | - | - | - | - |
| 1777557601 | 20° C | 30% | 1022.9 hPa | - | - | - | - |
| 1777556702 | 20° C | 29% | 1022.8 hPa | - | - | - | - |
| 1777555801 | 20° C | 28% | 1023 hPa | - | - | - | - |
| 1777554901 | 18.89° C | 30% | 1023 hPa | - | - | - | - |
| 1777554002 | 18.89° C | 29% | 1023.5 hPa | - | - | - | - |
| 1777553102 | 18.89° C | 29% | 1023.3 hPa | - | - | - | - |
| 1777552202 | 18.89° C | 30% | 1023.3 hPa | - | - | - | - |
| 1777551301 | 17.78° C | 28% | 1023.4 hPa | - | - | - | - |
| 1777550401 | 17.78° C | 28% | 1023.8 hPa | - | - | - | - |
| 1777549501 | 17.78° C | 28% | 1023.9 hPa | - | - | - | - |
| 1777545001 | 17.22° C | 29% | 1024.7 hPa | - | - | - | - |
| 1777544101 | 16.11° C | 31% | 1024.8 hPa | - | - | - | - |
| 1777543202 | 16.11° C | 31% | 1024.9 hPa | - | - | - | - |
| 1777542301 | 16.11° C | 32% | 1025 hPa | - | - | - | - |
| 1777541401 | 15° C | 34% | 1025.4 hPa | - | - | - | - |
| 1777540501 | 15° C | 34% | 1025.2 hPa | - | - | - | - |
| 1777537803 | 13.89° C | 36% | 1025.6 hPa | - | - | - | - |
| 1777536902 | 15° C | 36% | 1025.5 hPa | - | - | - | - |
| 1777536002 | 13.89° C | 37% | 1025.7 hPa | - | - | - | - |
| 1777535102 | 12.78° C | 40% | 1026 hPa | - | - | - | - |
| 1777534202 | 12.78° C | 42% | 1025.9 hPa | - | - | - | - |
| 1777533302 | 12.78° C | 42% | 1025.7 hPa | - | - | - | - |
* Rain since midnight (hover to see other rain measurements)
** Current wind speed in m/s (hover to see current wind gust speed)